Time,TemperatureF,DewpointF,PressureIn,WindDirection,WindDirectionDegrees,WindSpeedMPH,WindSpeedGustMPH,Humidity,HourlyPrecipIn,Conditions,Clouds,dailyrainin,SolarRadiationWatts/m^2,SoftwareType,DateUTC
2013-01-18 00:03:00,8.2,4.6,30.37,SW,223,0.0,0.0,85,0.00,,OVC100,0.00,0.00,VWS V14.01,2013-01-18 06:03:00,
2013-01-18 00:08:00,8.5,4.9,30.37,SW,223,0.0,0.0,85,0.00,,OVC100,0.00,0.00,VWS V14.01,2013-01-18 06:08:00,
2013-01-18 00:13:00,8.7,5.1,30.37,SW,223,0.0,0.0,85,0.00,,OVC100,0.00,0.00,VWS V14.01,2013-01-18 06:13:00,
2013-01-18 00:18:00,8.9,5.3,30.37,SW,223,0.0,0.0,85,0.00,,OVC100,0.00,0.00,VWS V14.01,2013-01-18 06:18:00,
2013-01-18 00:23:00,9.0,5.4,30.37,SW,223,0.0,0.0,85,0.00,,OVC100,0.00,0.00,VWS V14.01,2013-01-18 06:23:00,
2013-01-18 00:28:00,9.1,5.5,30.37,SW,223,0.0,0.0,85,0.00,,OVC100,0.00,0.00,VWS V14.01,2013-01-18 06:28:00,
2013-01-18 00:33:00,9.3,5.7,30.37,SW,223,0.0,0.0,85,0.00,,OVC100,0.00,0.00,VWS V14.01,2013-01-18 06:33:00,
2013-01-18 00:38:00,9.5,5.9,30.37,SW,223,0.0,0.0,85,0.00,,OVC100,0.00,0.00,VWS V14.01,2013-01-18 06:38:00,
2013-01-18 00:43:00,9.7,6.1,30.37,SW,223,0.0,0.0,85,0.00,,OVC100,0.00,0.00,VWS V14.01,2013-01-18 06:43:00,
2013-01-18 00:48:00,9.6,6.0,30.37,SW,223,0.0,0.0,85,0.00,,OVC100,0.00,0.00,VWS V14.01,2013-01-18 06:48:00,
2013-01-18 00:53:00,9.6,6.0,30.37,SW,223,0.0,1.0,85,0.00,,OVC100,0.00,0.00,VWS V14.01,2013-01-18 06:53:00,
2013-01-18 00:58:00,9.7,6.1,30.36,SW,223,1.0,2.0,85,0.00,,OVC100,0.00,0.00,VWS V14.01,2013-01-18 06:58:00,
2013-01-18 01:03:00,9.9,6.3,30.36,SW,223,0.0,0.0,85,0.00,,OVC110,0.00,0.00,VWS V14.01,2013-01-18 07:03:00,
2013-01-18 01:08:00,10.0,6.7,30.36,SW,223,0.0,1.0,86,0.00,,OVC110,0.00,0.00,VWS V14.01,2013-01-18 07:08:00,
2013-01-18 01:13:00,10.3,6.7,30.36,SW,223,0.0,1.0,85,0.00,,OVC110,0.00,0.00,VWS V14.01,2013-01-18 07:13:00,
2013-01-18 01:18:00,10.4,6.8,30.36,SW,223,0.0,1.0,85,0.00,,OVC110,0.00,0.00,VWS V14.01,2013-01-18 07:18:00,
2013-01-18 01:23:00,10.6,7.0,30.36,SW,223,0.0,1.0,85,0.00,,OVC110,0.00,0.00,VWS V14.01,2013-01-18 07:23:00,
2013-01-18 01:28:00,10.7,7.1,30.36,SW,223,0.0,1.0,85,0.00,,OVC110,0.00,0.00,VWS V14.01,2013-01-18 07:28:00,
2013-01-18 01:33:00,10.8,7.2,30.36,SW,223,0.0,1.0,85,0.00,,OVC110,0.00,0.00,VWS V14.01,2013-01-18 07:33:00,
2013-01-18 01:38:00,10.9,7.3,30.36,SW,223,1.0,2.0,85,0.00,,OVC110,0.00,0.00,VWS V14.01,2013-01-18 07:38:00,
2013-01-18 01:43:00,11.0,7.1,30.36,SW,223,1.0,2.0,84,0.00,,OVC110,0.00,0.00,VWS V14.01,2013-01-18 07:43:00,
2013-01-18 01:48:00,11.1,7.2,30.36,SW,223,1.0,2.0,84,0.00,,OVC110,0.00,0.00,VWS V14.01,2013-01-18 07:48:00,
2013-01-18 01:53:00,11.2,7.3,30.35,SW,223,0.0,2.0,84,0.00,,OVC110,0.00,0.00,VWS V14.01,2013-01-18 07:53:00,
2013-01-18 01:58:00,11.2,7.3,30.36,SW,223,0.0,2.0,84,0.00,,OVC110,0.00,0.00,VWS V14.01,2013-01-18 07:58:00,
2013-01-18 02:03:00,11.3,7.4,30.35,SW,223,1.0,1.0,84,0.00,,OVC060,0.00,0.00,VWS V14.01,2013-01-18 08:03:00,
2013-01-18 02:08:00,11.4,7.5,30.34,SW,223,0.0,1.0,84,0.00,,OVC060,0.00,0.00,VWS V14.01,2013-01-18 08:08:00,
2013-01-18 02:13:00,11.5,7.9,30.34,SW,223,0.0,1.0,85,0.00,,OVC060,0.00,0.00,VWS V14.01,2013-01-18 08:13:00,
2013-01-18 02:18:00,11.7,8.1,30.34,SW,223,0.0,1.0,85,0.00,,OVC060,0.00,0.00,VWS V14.01,2013-01-18 08:18:00,
2013-01-18 02:23:00,11.7,7.8,30.33,SW,223,0.0,1.0,84,0.00,,OVC060,0.00,0.00,VWS V14.01,2013-01-18 08:23:00,
2013-01-18 02:28:00,11.7,7.8,30.33,SSW,192,0.0,2.0,84,0.00,,OVC060,0.00,0.00,VWS V14.01,2013-01-18 08:28:00,
2013-01-18 02:33:00,11.8,7.9,30.33,SSW,192,1.0,2.0,84,0.00,,OVC060,0.00,0.00,VWS V14.01,2013-01-18 08:33:00,
2013-01-18 02:38:00,11.9,8.0,30.32,SSW,192,1.0,2.0,84,0.00,,OVC060,0.00,0.00,VWS V14.01,2013-01-18 08:38:00,
2013-01-18 02:43:00,11.9,8.0,30.31,South,188,1.0,2.0,84,0.00,,OVC060,0.00,0.00,VWS V14.01,2013-01-18 08:43:00,
2013-01-18 02:48:00,12.1,8.2,30.32,ESE,121,3.0,3.0,84,0.00,,OVC060,0.00,0.00,VWS V14.01,2013-01-18 08:48:00,
2013-01-18 02:53:00,12.3,8.4,30.32,SE,136,1.0,3.0,84,0.00,,OVC060,0.00,0.00,VWS V14.01,2013-01-18 08:53:00,
2013-01-18 02:58:00,12.4,8.2,30.32,SE,136,0.0,3.0,83,0.00,,OVC060,0.00,0.00,VWS V14.01,2013-01-18 08:58:00,
2013-01-18 03:03:00,12.5,8.3,30.32,SE,136,1.0,3.0,83,0.00,,,0.00,0.00,VWS V14.01,2013-01-18 09:03:00,
2013-01-18 03:08:00,12.5,8.3,30.31,ESE,119,0.0,5.0,83,0.00,,,0.00,0.00,VWS V14.01,2013-01-18 09:08:00,
2013-01-18 03:13:00,12.6,8.7,30.32,ESE,119,1.0,5.0,84,0.00,,,0.00,0.00,VWS V14.01,2013-01-18 09:13:00,
2013-01-18 03:18:00,12.7,8.8,30.31,SE,135,3.0,5.0,84,0.00,,,0.00,0.00,VWS V14.01,2013-01-18 09:18:00,
2013-01-18 03:23:00,12.7,8.8,30.31,SE,135,2.0,5.0,84,0.00,,,0.00,0.00,VWS V14.01,2013-01-18 09:23:00,
2013-01-18 03:28:00,12.7,9.1,30.30,SE,132,1.0,5.0,85,0.00,,,0.00,0.00,VWS V14.01,2013-01-18 09:28:00,
2013-01-18 03:33:00,12.7,9.1,30.30,SE,132,2.0,3.0,85,0.00,,,0.00,0.00,VWS V14.01,2013-01-18 09:33:00,
2013-01-18 03:38:00,12.7,9.1,30.29,SE,132,1.0,3.0,85,0.00,,,0.00,0.00,VWS V14.01,2013-01-18 09:38:00,
2013-01-18 03:43:00,12.6,9.2,30.29,SE,142,3.0,4.0,86,0.00,,,0.00,0.00,VWS V14.01,2013-01-18 09:43:00,
2013-01-18 03:48:00,12.6,9.2,30.29,ESE,121,2.0,4.0,86,0.00,,,0.00,0.00,VWS V14.01,2013-01-18 09:48:00,
2013-01-18 03:53:00,12.7,9.3,30.28,SE,131,0.0,4.0,86,0.00,,,0.00,0.00,VWS V14.01,2013-01-18 09:53:00,
2013-01-18 03:58:00,12.7,9.3,30.28,SE,127,3.0,4.0,86,0.00,,,0.00,0.00,VWS V14.01,2013-01-18 09:58:00,
2013-01-18 04:03:00,12.7,9.3,30.28,ESE,113,1.0,5.0,86,0.00,,,0.00,0.00,VWS V14.01,2013-01-18 10:03:00,
2013-01-18 04:08:00,12.8,9.7,30.27,ESE,123,1.0,6.0,87,0.00,,,0.00,0.00,VWS V14.01,2013-01-18 10:08:00,
2013-01-18 04:13:00,12.8,9.7,30.26,ESE,111,2.0,6.0,87,0.00,,,0.00,0.00,VWS V14.01,2013-01-18 10:13:00,
2013-01-18 04:19:00,12.8,9.7,30.26,ESE,116,2.0,6.0,87,0.00,,,0.00,0.00,VWS V14.01,2013-01-18 10:19:00,
2013-01-18 04:24:00,12.8,9.7,30.26,SE,136,2.0,6.0,87,0.00,,,0.00,0.00,VWS V14.01,2013-01-18 10:24:00,
2013-01-18 04:29:00,12.8,9.7,30.25,ESE,122,2.0,6.0,87,0.00,,,0.00,0.00,VWS V14.01,2013-01-18 10:29:00,
2013-01-18 04:34:00,12.8,9.7,30.25,ESE,109,4.0,6.0,87,0.00,,,0.00,0.00,VWS V14.01,2013-01-18 10:34:00,
2013-01-18 04:39:00,12.9,9.8,30.25,ESE,115,3.0,6.0,87,0.00,,,0.00,0.00,VWS V14.01,2013-01-18 10:39:00,
2013-01-18 04:44:00,12.8,9.7,30.24,SE,128,3.0,6.0,87,0.00,,,0.00,0.00,VWS V14.01,2013-01-18 10:44:00,
2013-01-18 04:49:00,12.9,9.8,30.24,ESE,111,2.0,6.0,87,0.00,,,0.00,0.00,VWS V14.01,2013-01-18 10:49:00,
2013-01-18 04:54:00,13.0,9.9,30.23,ESE,114,2.0,6.0,87,0.00,,,0.00,0.00,VWS V14.01,2013-01-18 10:54:00,
2013-01-18 04:59:00,13.0,9.9,30.23,SE,134,4.0,7.0,87,0.00,,,0.00,0.00,VWS V14.01,2013-01-18 10:59:00,
2013-01-18 05:04:00,13.1,10.0,30.22,SE,132,2.0,5.0,87,0.00,,,0.00,0.00,VWS V14.01,2013-01-18 11:04:00,
2013-01-18 05:09:00,13.1,10.0,30.22,ESE,115,2.0,7.0,87,0.00,,,0.00,0.00,VWS V14.01,2013-01-18 11:09:00,
2013-01-18 05:14:00,13.1,10.0,30.21,ESE,121,7.0,7.0,87,0.00,,,0.00,0.00,VWS V14.01,2013-01-18 11:14:00,
2013-01-18 05:19:00,13.2,10.1,30.21,ESE,120,3.0,7.0,87,0.00,,,0.00,0.00,VWS V14.01,2013-01-18 11:19:00,
2013-01-18 05:24:00,13.2,10.1,30.20,SSE,157,1.0,9.0,87,0.00,,,0.00,0.00,VWS V14.01,2013-01-18 11:24:00,
2013-01-18 05:29:00,13.4,10.3,30.20,SE,125,1.0,9.0,87,0.00,,,0.00,0.00,VWS V14.01,2013-01-18 11:29:00,
2013-01-18 05:34:00,13.4,10.3,30.20,SE,133,2.0,6.0,87,0.00,,,0.00,0.00,VWS V14.01,2013-01-18 11:34:00,
2013-01-18 05:39:00,13.5,10.4,30.19,SSE,164,2.0,7.0,87,0.00,,,0.00,0.00,VWS V14.01,2013-01-18 11:39:00,
2013-01-18 05:44:00,13.6,10.5,30.19,SE,132,3.0,10.0,87,0.00,,,0.00,0.00,VWS V14.01,2013-01-18 11:44:00,
2013-01-18 05:49:00,13.6,10.5,30.18,SSE,149,4.0,10.0,87,0.00,,,0.00,0.00,VWS V14.01,2013-01-18 11:49:00,
2013-01-18 05:54:00,13.7,10.6,30.17,SE,128,3.0,10.0,87,0.00,,,0.00,0.00,VWS V14.01,2013-01-18 11:54:00,
2013-01-18 05:59:00,13.7,10.6,30.17,ESE,119,8.0,10.0,87,0.00,,,0.00,0.00,VWS V14.01,2013-01-18 11:59:00,
2013-01-18 06:04:00,13.8,10.6,30.17,ENE,65,2.0,7.0,87,0.00,,OVC047,0.00,0.00,VWS V14.01,2013-01-18 12:04:00,
2013-01-18 06:09:00,13.8,10.6,30.16,SE,140,4.0,7.0,87,0.00,,OVC047,0.00,0.00,VWS V14.01,2013-01-18 12:09:00,
2013-01-18 06:14:00,13.9,10.8,30.15,ESE,109,5.0,11.0,87,0.00,,OVC047,0.00,0.00,VWS V14.01,2013-01-18 12:14:00,
2013-01-18 06:19:00,13.9,10.8,30.14,ESE,120,5.0,11.0,87,0.00,,OVC047,0.00,0.00,VWS V14.01,2013-01-18 12:19:00,
2013-01-18 06:24:00,14.0,10.9,30.13,East,98,6.0,11.0,87,0.00,,OVC047,0.00,0.00,VWS V14.01,2013-01-18 12:24:00,
2013-01-18 06:29:00,14.1,10.9,30.12,SE,130,5.0,11.0,87,0.00,,OVC047,0.00,0.00,VWS V14.01,2013-01-18 12:29:00,
2013-01-18 06:34:00,14.1,10.7,30.12,SE,144,5.0,10.0,86,0.00,,OVC047,0.00,0.00,VWS V14.01,2013-01-18 12:34:00,
2013-01-18 06:39:00,14.2,10.8,30.11,SE,146,5.0,10.0,86,0.00,,OVC047,0.00,0.00,VWS V14.01,2013-01-18 12:39:00,
2013-01-18 06:44:00,14.3,10.9,30.10,ENE,62,2.0,10.0,86,0.00,,OVC047,0.00,0.00,VWS V14.01,2013-01-18 12:44:00,
2013-01-18 06:49:00,14.4,11.0,30.09,ESE,105,3.0,10.0,86,0.00,,OVC047,0.00,0.00,VWS V14.01,2013-01-18 12:49:00,
2013-01-18 06:54:00,14.5,11.1,30.09,SE,142,3.0,10.0,86,0.00,,OVC047,0.00,0.00,VWS V14.01,2013-01-18 12:54:00,
2013-01-18 06:59:00,14.5,11.1,30.08,ESE,111,4.0,10.0,86,0.00,,OVC047,0.00,0.00,VWS V14.01,2013-01-18 12:59:00,
2013-01-18 07:04:00,14.5,11.1,30.08,SE,142,4.0,9.0,86,0.00,,OVC095,0.00,0.00,VWS V14.01,2013-01-18 13:04:00,
2013-01-18 07:09:00,14.6,11.2,30.08,SE,136,3.0,9.0,86,0.00,,OVC095,0.00,0.00,VWS V14.01,2013-01-18 13:09:00,
2013-01-18 07:14:00,14.6,11.2,30.08,SE,124,4.0,9.0,86,0.00,,OVC095,0.00,0.00,VWS V14.01,2013-01-18 13:14:00,
2013-01-18 07:19:00,14.8,11.4,30.07,SE,132,4.0,9.0,86,0.00,,OVC095,0.00,0.00,VWS V14.01,2013-01-18 13:19:00,
2013-01-18 07:24:00,14.9,11.5,30.06,SE,132,4.0,9.0,86,0.00,,OVC095,0.00,0.00,VWS V14.01,2013-01-18 13:24:00,
2013-01-18 07:29:00,15.0,11.6,30.06,ESE,119,5.0,9.0,86,0.00,,OVC095,0.00,0.00,VWS V14.01,2013-01-18 13:29:00,
2013-01-18 07:34:00,15.1,11.7,30.05,ESE,107,4.0,9.0,86,0.00,,OVC095,0.00,0.00,VWS V14.01,2013-01-18 13:34:00,
2013-01-18 07:39:00,15.2,11.8,30.05,SE,140,2.0,9.0,86,0.00,,OVC095,0.00,0.00,VWS V14.01,2013-01-18 13:39:00,
2013-01-18 07:44:00,15.4,12.0,30.05,SSE,155,2.0,9.0,86,0.00,,OVC095,0.00,0.00,VWS V14.01,2013-01-18 13:44:00,
2013-01-18 07:49:00,15.6,12.2,30.04,SE,146,3.0,9.0,86,0.00,,OVC095,0.00,0.00,VWS V14.01,2013-01-18 13:49:00,
2013-01-18 07:54:00,15.7,12.3,30.04,SE,130,3.0,9.0,86,0.00,,OVC095,0.00,7.00,VWS V14.01,2013-01-18 13:54:00,
2013-01-18 07:59:00,15.8,12.4,30.04,ESE,121,3.0,9.0,86,0.00,,OVC095,0.00,12.00,VWS V14.01,2013-01-18 13:59:00,
2013-01-18 08:04:00,16.0,12.6,30.04,SE,133,3.0,7.0,86,0.00,,OVC100,0.00,18.00,VWS V14.01,2013-01-18 14:04:00,
2013-01-18 08:09:00,16.1,12.7,30.03,SE,138,2.0,7.0,86,0.00,,OVC100,0.00,21.00,VWS V14.01,2013-01-18 14:09:00,
2013-01-18 08:14:00,16.2,12.8,30.03,SE,141,4.0,7.0,86,0.00,,OVC100,0.00,26.00,VWS V14.01,2013-01-18 14:14:00,
2013-01-18 08:19:00,16.3,12.9,30.03,ESE,121,3.0,7.0,86,0.00,,OVC100,0.00,30.00,VWS V14.01,2013-01-18 14:19:00,
2013-01-18 08:24:00,16.4,12.9,30.03,SSE,163,2.0,7.0,86,0.00,,OVC100,0.00,33.00,VWS V14.01,2013-01-18 14:24:00,
2013-01-18 08:29:00,16.6,13.1,30.03,SE,127,2.0,7.0,86,0.00,,OVC100,0.00,39.00,VWS V14.01,2013-01-18 14:29:00,
2013-01-18 08:34:00,16.7,13.2,30.03,SE,128,1.0,3.0,86,0.00,,OVC100,0.00,42.00,VWS V14.01,2013-01-18 14:34:00,
2013-01-18 08:39:00,16.9,13.4,30.02,SSE,153,1.0,5.0,86,0.00,,OVC100,0.00,40.00,VWS V14.01,2013-01-18 14:39:00,
2013-01-18 08:44:00,17.0,13.5,30.02,SSE,154,1.0,5.0,86,0.00,,OVC100,0.00,37.00,VWS V14.01,2013-01-18 14:44:00,
2013-01-18 08:49:00,17.1,13.6,30.02,ESE,121,1.0,5.0,86,0.00,,OVC100,0.00,42.00,VWS V14.01,2013-01-18 14:49:00,
2013-01-18 08:54:00,17.3,13.8,30.01,ESE,118,2.0,5.0,86,0.00,,OVC100,0.00,42.00,VWS V14.01,2013-01-18 14:54:00,
2013-01-18 08:59:00,17.4,13.9,30.01,SE,142,3.0,3.0,86,0.00,,OVC100,0.00,51.00,VWS V14.01,2013-01-18 14:59:00,
2013-01-18 09:04:00,17.6,14.1,30.00,SE,129,3.0,4.0,86,0.00,,FEW110,0.00,102.00,VWS V14.01,2013-01-18 15:04:00,
2013-01-18 09:09:00,18.1,14.6,29.99,ESE,103,1.0,4.0,86,0.00,,FEW110,0.00,128.00,VWS V14.01,2013-01-18 15:09:00,
2013-01-18 09:14:00,18.5,15.0,29.99,SE,125,3.0,6.0,86,0.00,,FEW110,0.00,95.00,VWS V14.01,2013-01-18 15:14:00,
2013-01-18 09:19:00,18.6,15.1,29.99,ESE,123,3.0,6.0,86,0.00,,FEW110,0.00,95.00,VWS V14.01,2013-01-18 15:19:00,
2013-01-18 09:24:00,18.7,15.2,29.99,SE,140,5.0,7.0,86,0.00,,FEW110,0.00,62.00,VWS V14.01,2013-01-18 15:24:00,
2013-01-18 09:29:00,18.8,15.3,29.99,ESE,114,4.0,4.0,86,0.00,,FEW110,0.00,118.00,VWS V14.01,2013-01-18 15:29:00,
2013-01-18 09:34:00,19.2,15.7,29.98,SE,145,1.0,4.0,86,0.00,,FEW110,0.00,185.00,VWS V14.01,2013-01-18 15:34:00,
2013-01-18 09:39:00,19.6,16.1,29.98,SE,125,3.0,4.0,86,0.00,,FEW110,0.00,141.00,VWS V14.01,2013-01-18 15:39:00,
2013-01-18 09:44:00,20.0,16.5,29.97,SSE,151,3.0,5.0,86,0.00,,FEW110,0.00,128.00,VWS V14.01,2013-01-18 15:44:00,
2013-01-18 09:49:00,20.4,16.9,29.97,ESE,123,5.0,7.0,86,0.00,,FEW110,0.00,100.00,VWS V14.01,2013-01-18 15:49:00,
2013-01-18 09:54:00,20.9,17.4,29.96,South,170,2.0,7.0,86,0.00,,FEW110,0.00,137.00,VWS V14.01,2013-01-18 15:54:00,
2013-01-18 09:59:00,21.5,18.0,29.95,South,169,3.0,4.0,86,0.00,,CLR,0.00,211.00,VWS V14.01,2013-01-18 15:59:00,
2013-01-18 10:04:00,22.2,18.4,29.95,South,184,3.0,7.0,85,0.00,,CLR,0.00,209.00,VWS V14.01,2013-01-18 16:04:00,
2013-01-18 10:09:00,22.7,18.9,29.94,SSE,168,4.0,7.0,85,0.00,,CLR,0.00,186.00,VWS V14.01,2013-01-18 16:09:00,
2013-01-18 10:14:00,22.9,18.8,29.94,SE,142,2.0,10.0,84,0.00,,CLR,0.00,172.00,VWS V14.01,2013-01-18 16:14:00,
2013-01-18 10:19:00,23.2,19.1,29.94,SSE,167,1.0,10.0,84,0.00,,CLR,0.00,160.00,VWS V14.01,2013-01-18 16:19:00,
2013-01-18 10:25:00,23.5,19.4,29.94,SE,132,4.0,10.0,84,0.00,,CLR,0.00,155.00,VWS V14.01,2013-01-18 16:25:00,
2013-01-18 10:30:00,23.7,19.6,29.93,South,172,5.0,5.0,84,0.00,,CLR,0.00,172.00,VWS V14.01,2013-01-18 16:30:00,
2013-01-18 10:35:00,24.0,19.9,29.93,SSE,154,1.0,9.0,84,0.00,,CLR,0.00,160.00,VWS V14.01,2013-01-18 16:35:00,
2013-01-18 10:40:00,24.3,20.2,29.92,SSE,150,3.0,9.0,84,0.00,,CLR,0.00,179.00,VWS V14.01,2013-01-18 16:40:00,
2013-01-18 10:45:00,24.6,20.5,29.92,South,174,5.0,9.0,84,0.00,,CLR,0.00,225.00,VWS V14.01,2013-01-18 16:45:00,
2013-01-18 10:50:00,24.9,20.8,29.92,SSE,163,1.0,9.0,84,0.00,,CLR,0.00,204.00,VWS V14.01,2013-01-18 16:50:00,
2013-01-18 10:55:00,25.3,20.9,29.92,South,191,4.0,16.0,83,0.00,,CLR,0.00,185.00,VWS V14.01,2013-01-18 16:55:00,
2013-01-18 11:00:00,25.5,21.1,29.92,South,186,3.0,3.0,83,0.00,,FEW120,0.00,162.00,VWS V14.01,2013-01-18 17:00:00,
2013-01-18 11:05:00,25.7,21.3,29.92,South,173,0.0,7.0,83,0.00,,FEW120,0.00,169.00,VWS V14.01,2013-01-18 17:05:00,
2013-01-18 11:10:00,26.0,21.6,29.91,South,172,2.0,7.0,83,0.00,,FEW120,0.00,181.00,VWS V14.01,2013-01-18 17:10:00,
2013-01-18 11:15:00,26.2,21.8,29.90,SSE,165,3.0,9.0,83,0.00,,FEW120,0.00,186.00,VWS V14.01,2013-01-18 17:15:00,
2013-01-18 11:20:00,26.4,22.0,29.89,SE,136,2.0,9.0,83,0.00,,FEW120,0.00,195.00,VWS V14.01,2013-01-18 17:20:00,
2013-01-18 11:25:00,26.7,22.0,29.89,SE,141,3.0,9.0,82,0.00,,FEW120,0.00,206.00,VWS V14.01,2013-01-18 17:25:00,
2013-01-18 11:30:00,27.0,22.5,29.89,SE,132,1.0,2.0,83,0.00,,FEW120,0.00,232.00,VWS V14.01,2013-01-18 17:30:00,
2013-01-18 11:35:00,27.4,22.9,29.89,South,184,5.0,7.0,83,0.00,,FEW120,0.00,243.00,VWS V14.01,2013-01-18 17:35:00,
2013-01-18 11:40:00,27.8,23.0,29.88,South,190,2.0,7.0,82,0.00,,FEW120,0.00,244.00,VWS V14.01,2013-01-18 17:40:00,
2013-01-18 11:45:00,28.1,23.3,29.87,SSE,164,2.0,7.0,82,0.00,,FEW120,0.00,243.00,VWS V14.01,2013-01-18 17:45:00,
2013-01-18 11:50:00,28.4,23.6,29.86,South,181,2.0,7.0,82,0.00,,FEW120,0.00,243.00,VWS V14.01,2013-01-18 17:50:00,
2013-01-18 11:55:00,28.7,23.6,29.86,South,173,1.0,7.0,81,0.00,,FEW120,0.00,248.00,VWS V14.01,2013-01-18 17:55:00,
2013-01-18 12:00:00,29.0,23.9,29.85,SE,127,2.0,3.0,81,0.00,,CLR,0.00,251.00,VWS V14.01,2013-01-18 18:00:00,
2013-01-18 12:05:00,29.2,24.1,29.85,SSE,166,2.0,4.0,81,0.00,,CLR,0.00,255.00,VWS V14.01,2013-01-18 18:05:00,
2013-01-18 12:10:00,29.5,24.4,29.84,SSE,163,2.0,4.0,81,0.00,,CLR,0.00,255.00,VWS V14.01,2013-01-18 18:10:00,
2013-01-18 12:15:00,29.8,24.7,29.83,SE,135,2.0,4.0,81,0.00,,CLR,0.00,221.00,VWS V14.01,2013-01-18 18:15:00,
2013-01-18 12:20:00,30.2,25.1,29.83,SSE,167,2.0,7.0,81,0.00,,CLR,0.00,380.00,VWS V14.01,2013-01-18 18:20:00,
2013-01-18 12:25:00,30.8,25.4,29.82,South,186,3.0,7.0,80,0.00,,CLR,0.00,445.00,VWS V14.01,2013-01-18 18:25:00,
2013-01-18 12:30:00,31.4,25.6,29.82,SE,140,1.0,5.0,79,0.00,,CLR,0.00,443.00,VWS V14.01,2013-01-18 18:30:00,
2013-01-18 12:35:00,32.0,25.9,29.82,SSE,162,6.0,7.0,78,0.00,,CLR,0.00,446.00,VWS V14.01,2013-01-18 18:35:00,
2013-01-18 12:40:00,32.5,26.4,29.81,South,178,7.0,7.0,78,0.00,,CLR,0.00,446.00,VWS V14.01,2013-01-18 18:40:00,
2013-01-18 12:45:00,33.1,26.7,29.81,SE,145,3.0,7.0,77,0.00,,CLR,0.00,439.00,VWS V14.01,2013-01-18 18:45:00,
2013-01-18 12:50:00,33.4,27.0,29.80,SSW,192,5.0,10.0,77,0.00,,CLR,0.00,436.00,VWS V14.01,2013-01-18 18:50:00,
2013-01-18 12:55:00,33.9,27.1,29.80,South,185,3.0,10.0,76,0.00,,CLR,0.00,436.00,VWS V14.01,2013-01-18 18:55:00,
2013-01-18 13:00:00,34.5,28.0,29.80,SSW,196,2.0,4.0,77,0.00,,CLR,0.00,420.00,VWS V14.01,2013-01-18 19:00:00,
2013-01-18 13:05:00,34.8,28.0,29.80,South,175,0.0,5.0,76,0.00,,CLR,0.00,408.00,VWS V14.01,2013-01-18 19:05:00,
2013-01-18 13:10:00,35.4,28.6,29.80,South,175,1.0,5.0,76,0.00,,CLR,0.00,413.00,VWS V14.01,2013-01-18 19:10:00,
2013-01-18 13:15:00,35.8,28.7,29.80,SSW,205,4.0,5.0,75,0.00,,CLR,0.00,299.00,VWS V14.01,2013-01-18 19:15:00,
2013-01-18 13:20:00,36.1,29.0,29.79,South,186,2.0,6.0,75,0.00,,CLR,0.00,304.00,VWS V14.01,2013-01-18 19:20:00,
2013-01-18 13:25:00,36.4,28.9,29.78,South,182,1.0,7.0,74,0.00,,CLR,0.00,399.00,VWS V14.01,2013-01-18 19:25:00,
2013-01-18 13:30:00,37.0,29.5,29.78,South,182,3.0,3.0,74,0.00,,CLR,0.00,387.00,VWS V14.01,2013-01-18 19:30:00,
2013-01-18 13:35:00,37.5,29.6,29.79,SSW,193,2.0,5.0,73,0.00,,CLR,0.00,302.00,VWS V14.01,2013-01-18 19:35:00,
2013-01-18 13:40:00,37.8,29.6,29.79,South,190,1.0,5.0,72,0.00,,CLR,0.00,285.00,VWS V14.01,2013-01-18 19:40:00,
2013-01-18 13:45:00,37.9,29.4,29.78,SSW,213,2.0,5.0,71,0.00,,CLR,0.00,334.00,VWS V14.01,2013-01-18 19:45:00,
2013-01-18 13:50:00,38.3,29.7,29.78,SW,216,1.0,5.0,71,0.00,,CLR,0.00,376.00,VWS V14.01,2013-01-18 19:50:00,
2013-01-18 13:55:00,38.7,30.1,29.78,SW,216,1.0,5.0,71,0.00,,CLR,0.00,315.00,VWS V14.01,2013-01-18 19:55:00,
2013-01-18 14:00:00,39.1,30.2,29.78,WSW,242,5.0,5.0,70,0.00,,CLR,0.00,320.00,VWS V14.01,2013-01-18 20:00:00,
2013-01-18 14:05:00,39.1,30.2,29.77,SW,224,2.0,5.0,70,0.00,,CLR,0.00,278.00,VWS V14.01,2013-01-18 20:05:00,
2013-01-18 14:10:00,39.3,30.4,29.77,SW,219,5.0,7.0,70,0.00,,CLR,0.00,260.00,VWS V14.01,2013-01-18 20:10:00,
2013-01-18 14:15:00,39.3,30.7,29.77,SSW,206,4.0,7.0,71,0.00,,CLR,0.00,255.00,VWS V14.01,2013-01-18 20:15:00,
2013-01-18 14:20:00,39.5,30.9,29.77,SSW,210,6.0,8.0,71,0.00,,CLR,0.00,309.00,VWS V14.01,2013-01-18 20:20:00,
2013-01-18 14:25:00,39.8,31.2,29.76,SSW,213,6.0,8.0,71,0.00,,CLR,0.00,251.00,VWS V14.01,2013-01-18 20:25:00,
2013-01-18 14:30:00,39.8,31.2,29.76,SW,222,6.0,7.0,71,0.00,,CLR,0.00,225.00,VWS V14.01,2013-01-18 20:30:00,
2013-01-18 14:35:00,40.0,31.4,29.76,SW,214,7.0,7.0,71,0.00,,CLR,0.00,250.00,VWS V14.01,2013-01-18 20:35:00,
2013-01-18 14:40:00,40.2,31.6,29.76,SW,223,6.0,10.0,71,0.00,,CLR,0.00,281.00,VWS V14.01,2013-01-18 20:40:00,
2013-01-18 14:45:00,40.4,31.8,29.76,SW,225,4.0,10.0,71,0.00,,CLR,0.00,248.00,VWS V14.01,2013-01-18 20:45:00,
2013-01-18 14:50:00,40.5,31.9,29.76,SSW,212,6.0,10.0,71,0.00,,CLR,0.00,221.00,VWS V14.01,2013-01-18 20:50:00,
2013-01-18 14:55:00,40.5,31.9,29.76,WSW,238,6.0,10.0,71,0.00,,CLR,0.00,197.00,VWS V14.01,2013-01-18 20:55:00,
2013-01-18 15:00:00,40.4,31.8,29.76,SW,219,4.0,7.0,71,0.00,,CLR,0.00,146.00,VWS V14.01,2013-01-18 21:00:00,
2013-01-18 15:05:00,40.3,32.0,29.76,SW,224,6.0,8.0,72,0.00,,CLR,0.00,139.00,VWS V14.01,2013-01-18 21:05:00,
2013-01-18 15:10:00,40.3,32.0,29.77,SW,234,7.0,9.0,72,0.00,,CLR,0.00,141.00,VWS V14.01,2013-01-18 21:10:00,
2013-01-18 15:15:00,40.3,31.7,29.77,SSW,209,5.0,10.0,71,0.00,,CLR,0.00,127.00,VWS V14.01,2013-01-18 21:15:00,
2013-01-18 15:20:00,40.3,32.0,29.76,SW,219,9.0,10.0,72,0.00,,CLR,0.00,118.00,VWS V14.01,2013-01-18 21:20:00,
2013-01-18 15:25:00,40.2,31.9,29.76,SSW,213,7.0,10.0,72,0.00,,CLR,0.00,116.00,VWS V14.01,2013-01-18 21:25:00,
2013-01-18 15:30:00,40.1,33.2,29.76,WSW,244,4.0,7.0,76,0.00,,CLR,0.00,86.00,VWS V14.01,2013-01-18 21:30:00,
2013-01-18 15:35:00,40.0,31.7,29.76,SW,218,5.0,10.0,72,0.00,,CLR,0.00,90.00,VWS V14.01,2013-01-18 21:35:00,
2013-01-18 15:40:00,39.9,32.0,29.75,SSW,211,3.0,10.0,73,0.00,,CLR,0.00,114.00,VWS V14.01,2013-01-18 21:40:00,
2013-01-18 15:45:00,40.0,32.1,29.74,South,181,6.0,10.0,73,0.00,,CLR,0.00,130.00,VWS V14.01,2013-01-18 21:45:00,
2013-01-18 15:50:00,40.2,31.9,29.74,SSW,206,8.0,10.0,72,0.00,,CLR,0.00,127.00,VWS V14.01,2013-01-18 21:50:00,
2013-01-18 15:55:00,40.3,32.0,29.74,SSW,209,3.0,10.0,72,0.00,,CLR,0.00,121.00,VWS V14.01,2013-01-18 21:55:00,
2013-01-18 16:00:00,40.3,32.0,29.74,SW,214,7.0,8.0,72,0.00,,CLR,0.00,105.00,VWS V14.01,2013-01-18 22:00:00,
2013-01-18 16:05:00,40.2,31.9,29.75,SW,226,7.0,9.0,72,0.00,,CLR,0.00,65.00,VWS V14.01,2013-01-18 22:05:00,
2013-01-18 16:10:00,40.0,31.7,29.75,WSW,240,5.0,9.0,72,0.00,,CLR,0.00,88.00,VWS V14.01,2013-01-18 22:10:00,
2013-01-18 16:15:00,39.9,32.0,29.75,SSW,196,6.0,11.0,73,0.00,,CLR,0.00,46.00,VWS V14.01,2013-01-18 22:15:00,
2013-01-18 16:20:00,39.6,31.7,29.75,SW,214,7.0,11.0,73,0.00,,CLR,0.00,49.00,VWS V14.01,2013-01-18 22:20:00,
2013-01-18 16:25:00,39.3,31.7,29.75,SW,224,4.0,11.0,74,0.00,,CLR,0.00,56.00,VWS V14.01,2013-01-18 22:25:00,
2013-01-18 16:30:00,39.2,31.6,29.76,SW,227,5.0,5.0,74,0.00,,CLR,0.00,49.00,VWS V14.01,2013-01-18 22:30:00,
2013-01-18 16:35:00,39.1,31.5,29.76,SW,232,2.0,7.0,74,0.00,,CLR,0.00,30.00,VWS V14.01,2013-01-18 22:35:00,
2013-01-18 16:40:00,38.8,31.2,29.76,WSW,251,5.0,7.0,74,0.00,,CLR,0.00,12.00,VWS V14.01,2013-01-18 22:40:00,
2013-01-18 16:45:00,38.6,31.4,29.76,WSW,257,5.0,7.0,75,0.00,,CLR,0.00,14.00,VWS V14.01,2013-01-18 22:45:00,
2013-01-18 16:50:00,38.2,31.0,29.75,WSW,257,2.0,7.0,75,0.00,,CLR,0.00,7.00,VWS V14.01,2013-01-18 22:50:00,
2013-01-18 16:55:00,37.8,30.9,29.76,WSW,257,2.0,7.0,76,0.00,,CLR,0.00,0.00,VWS V14.01,2013-01-18 22:55:00,
2013-01-18 17:00:00,37.5,31.0,29.76,WSW,257,1.0,3.0,77,0.00,,CLR,0.00,0.00,VWS V14.01,2013-01-18 23:00:00,
2013-01-18 17:06:00,37.3,31.1,29.75,SW,221,2.0,4.0,78,0.00,,CLR,0.00,0.00,VWS V14.01,2013-01-18 23:06:00,
2013-01-18 17:11:00,37.2,30.7,29.76,SW,221,2.0,4.0,77,0.00,,CLR,0.00,0.00,VWS V14.01,2013-01-18 23:11:00,
2013-01-18 17:16:00,37.0,30.8,29.76,SW,228,3.0,4.0,78,0.00,,CLR,0.00,0.00,VWS V14.01,2013-01-18 23:16:00,
2013-01-18 17:21:00,36.8,30.6,29.76,SW,225,3.0,5.0,78,0.00,,CLR,0.00,0.00,VWS V14.01,2013-01-18 23:21:00,
2013-01-18 17:26:00,36.5,30.3,29.75,SW,220,2.0,5.0,78,0.00,,CLR,0.00,0.00,VWS V14.01,2013-01-18 23:26:00,
2013-01-18 17:31:00,36.2,30.3,29.76,SW,220,1.0,2.0,79,0.00,,CLR,0.00,0.00,VWS V14.01,2013-01-18 23:31:00,
2013-01-18 17:36:00,35.9,30.3,29.75,SW,220,1.0,2.0,80,0.00,,CLR,0.00,0.00,VWS V14.01,2013-01-18 23:36:00,
2013-01-18 17:41:00,35.8,30.5,29.76,SW,220,0.0,2.0,81,0.00,,CLR,0.00,0.00,VWS V14.01,2013-01-18 23:41:00,
2013-01-18 17:46:00,35.6,30.4,29.75,SW,220,0.0,2.0,81,0.00,,CLR,0.00,0.00,VWS V14.01,2013-01-18 23:46:00,
2013-01-18 17:51:00,35.4,30.5,29.75,SSW,210,1.0,3.0,82,0.00,,CLR,0.00,0.00,VWS V14.01,2013-01-18 23:51:00,
2013-01-18 17:56:00,35.6,30.4,29.75,SSW,201,3.0,4.0,81,0.00,,CLR,0.00,0.00,VWS V14.01,2013-01-18 23:56:00,
2013-01-18 18:01:00,35.5,30.3,29.76,SW,215,2.0,3.0,81,0.00,,CLR,0.00,0.00,VWS V14.01,2013-01-19 00:01:00,
2013-01-18 18:06:00,35.4,30.5,29.75,SW,214,2.0,3.0,82,0.00,,CLR,0.00,0.00,VWS V14.01,2013-01-19 00:06:00,
2013-01-18 18:11:00,35.3,30.4,29.75,SW,214,3.0,3.0,82,0.00,,CLR,0.00,0.00,VWS V14.01,2013-01-19 00:11:00,
2013-01-18 18:16:00,35.1,30.2,29.75,SSW,213,3.0,4.0,82,0.00,,CLR,0.00,0.00,VWS V14.01,2013-01-19 00:16:00,
2013-01-18 18:21:00,35.0,30.1,29.75,SW,220,5.0,7.0,82,0.00,,CLR,0.00,0.00,VWS V14.01,2013-01-19 00:21:00,
2013-01-18 18:26:00,34.9,30.0,29.75,SW,214,3.0,7.0,82,0.00,,CLR,0.00,0.00,VWS V14.01,2013-01-19 00:26:00,
2013-01-18 18:31:00,34.8,29.9,29.76,SSW,211,3.0,6.0,82,0.00,,CLR,0.00,0.00,VWS V14.01,2013-01-19 00:31:00,
2013-01-18 18:36:00,34.9,30.3,29.75,SW,229,6.0,7.0,83,0.00,,CLR,0.00,0.00,VWS V14.01,2013-01-19 00:36:00,
2013-01-18 18:41:00,35.1,30.5,29.75,SW,231,3.0,7.0,83,0.00,,CLR,0.00,0.00,VWS V14.01,2013-01-19 00:41:00,
2013-01-18 18:46:00,35.3,30.7,29.75,WSW,250,7.0,8.0,83,0.00,,CLR,0.00,0.00,VWS V14.01,2013-01-19 00:46:00,
2013-01-18 18:51:00,36.1,31.1,29.76,WSW,237,4.0,10.0,82,0.00,,CLR,0.00,0.00,VWS V14.01,2013-01-19 00:51:00,
2013-01-18 18:56:00,36.3,31.0,29.77,West,263,7.0,10.0,81,0.00,,CLR,0.00,0.00,VWS V14.01,2013-01-19 00:56:00,
2013-01-18 19:01:00,36.2,30.6,29.77,WSW,250,4.0,6.0,80,0.00,,CLR,0.00,0.00,VWS V14.01,2013-01-19 01:01:00,
2013-01-18 19:06:00,35.8,30.5,29.77,WSW,255,5.0,7.0,81,0.00,,CLR,0.00,0.00,VWS V14.01,2013-01-19 01:06:00,
2013-01-18 19:11:00,35.5,30.3,29.77,WSW,251,5.0,7.0,81,0.00,,CLR,0.00,0.00,VWS V14.01,2013-01-19 01:11:00,
2013-01-18 19:16:00,35.3,30.1,29.77,WSW,248,5.0,7.0,81,0.00,,CLR,0.00,0.00,VWS V14.01,2013-01-19 01:16:00,
2013-01-18 19:21:00,35.1,29.9,29.77,WSW,251,3.0,7.0,81,0.00,,CLR,0.00,0.00,VWS V14.01,2013-01-19 01:21:00,
2013-01-18 19:27:00,34.8,29.9,29.77,WSW,250,2.0,7.0,82,0.00,,CLR,0.00,0.00,VWS V14.01,2013-01-19 01:27:00,
2013-01-18 19:32:00,34.6,29.7,29.77,WSW,246,3.0,4.0,82,0.00,,CLR,0.00,0.00,VWS V14.01,2013-01-19 01:32:00,
2013-01-18 19:37:00,34.2,29.3,29.77,WSW,242,2.0,5.0,82,0.00,,CLR,0.00,0.00,VWS V14.01,2013-01-19 01:37:00,
2013-01-18 19:42:00,33.9,29.3,29.76,WSW,238,3.0,5.0,83,0.00,,CLR,0.00,0.00,VWS V14.01,2013-01-19 01:42:00,
2013-01-18 19:47:00,33.5,28.9,29.77,WSW,250,4.0,5.0,83,0.00,,CLR,0.00,0.00,VWS V14.01,2013-01-19 01:47:00,
2013-01-18 19:52:00,33.6,29.0,29.77,West,265,3.0,6.0,83,0.00,,CLR,0.00,0.00,VWS V14.01,2013-01-19 01:52:00,
2013-01-18 19:57:00,33.7,29.1,29.77,WSW,250,3.0,7.0,83,0.00,,CLR,0.00,0.00,VWS V14.01,2013-01-19 01:57:00,
2013-01-18 20:02:00,33.8,30.6,29.77,West,262,3.0,5.0,88,0.00,,CLR,0.00,0.00,VWS V14.01,2013-01-19 02:02:00,
2013-01-18 20:07:00,33.8,29.2,29.77,WNW,282,1.0,6.0,83,0.00,,CLR,0.00,0.00,VWS V14.01,2013-01-19 02:07:00,
2013-01-18 20:12:00,33.6,29.0,29.77,WSW,258,2.0,6.0,83,0.00,,CLR,0.00,0.00,VWS V14.01,2013-01-19 02:12:00,
2013-01-18 20:17:00,33.6,29.0,29.77,West,267,5.0,6.0,83,0.00,,CLR,0.00,0.00,VWS V14.01,2013-01-19 02:17:00,
2013-01-18 20:22:00,33.3,28.4,29.78,West,273,5.0,7.0,82,0.00,,CLR,0.00,0.00,VWS V14.01,2013-01-19 02:22:00,
2013-01-18 20:27:00,33.3,28.7,29.77,West,279,3.0,7.0,83,0.00,,CLR,0.00,0.00,VWS V14.01,2013-01-19 02:27:00,
2013-01-18 20:32:00,33.2,28.6,29.77,West,267,1.0,6.0,83,0.00,,CLR,0.00,0.00,VWS V14.01,2013-01-19 02:32:00,
2013-01-18 20:37:00,33.0,28.4,29.77,West,265,2.0,6.0,83,0.00,,CLR,0.00,0.00,VWS V14.01,2013-01-19 02:37:00,
2013-01-18 20:42:00,32.9,28.3,29.78,West,263,3.0,6.0,83,0.00,,CLR,0.00,0.00,VWS V14.01,2013-01-19 02:42:00,
2013-01-18 20:47:00,32.6,28.0,29.78,West,266,2.0,6.0,83,0.00,,CLR,0.00,0.00,VWS V14.01,2013-01-19 02:47:00,
2013-01-18 20:52:00,32.6,28.3,29.78,West,266,5.0,6.0,84,0.00,,CLR,0.00,0.00,VWS V14.01,2013-01-19 02:52:00,
2013-01-18 20:57:00,32.5,27.9,29.79,West,267,1.0,6.0,83,0.00,,CLR,0.00,0.00,VWS V14.01,2013-01-19 02:57:00,
2013-01-18 21:02:00,32.4,27.8,29.79,West,259,5.0,7.0,83,0.00,,CLR,0.00,0.00,VWS V14.01,2013-01-19 03:02:00,
2013-01-18 21:07:00,32.4,27.8,29.78,WNW,283,5.0,8.0,83,0.00,,CLR,0.00,0.00,VWS V14.01,2013-01-19 03:07:00,
2013-01-18 21:12:00,32.4,27.8,29.79,WSW,256,4.0,8.0,83,0.00,,CLR,0.00,0.00,VWS V14.01,2013-01-19 03:12:00,
2013-01-18 21:17:00,32.3,27.7,29.79,WNW,286,5.0,8.0,83,0.00,,CLR,0.00,0.00,VWS V14.01,2013-01-19 03:17:00,
2013-01-18 21:22:00,32.1,27.5,29.78,WSW,257,3.0,8.0,83,0.00,,CLR,0.00,0.00,VWS V14.01,2013-01-19 03:22:00,
2013-01-18 21:27:00,32.0,27.4,29.79,West,280,3.0,8.0,83,0.00,,CLR,0.00,0.00,VWS V14.01,2013-01-19 03:27:00,
2013-01-18 21:32:00,31.7,27.1,29.78,West,280,2.0,4.0,83,0.00,,CLR,0.00,0.00,VWS V14.01,2013-01-19 03:32:00,
2013-01-18 21:37:00,31.6,27.0,29.78,West,280,1.0,4.0,83,0.00,,CLR,0.00,0.00,VWS V14.01,2013-01-19 03:37:00,
2013-01-18 21:42:00,31.4,26.8,29.78,WSW,253,2.0,4.0,83,0.00,,CLR,0.00,0.00,VWS V14.01,2013-01-19 03:42:00,
2013-01-18 21:47:00,31.3,26.8,29.78,WSW,248,2.0,5.0,83,0.00,,CLR,0.00,0.00,VWS V14.01,2013-01-19 03:47:00,
2013-01-18 21:52:00,30.9,26.4,29.78,WSW,255,3.0,5.0,83,0.00,,CLR,0.00,0.00,VWS V14.01,2013-01-19 03:52:00,
2013-01-18 21:57:00,30.3,26.1,29.77,SW,230,2.0,5.0,84,0.00,,CLR,0.00,0.00,VWS V14.01,2013-01-19 03:57:00,
2013-01-18 22:02:00,30.0,26.0,29.77,SW,230,1.0,2.0,85,0.00,,CLR,0.00,0.00,VWS V14.01,2013-01-19 04:02:00,
2013-01-18 22:07:00,29.9,26.0,29.77,SW,230,2.0,2.0,85,0.00,,CLR,0.00,0.00,VWS V14.01,2013-01-19 04:07:00,
2013-01-18 22:12:00,29.8,25.9,29.77,SW,230,3.0,3.0,85,0.00,,CLR,0.00,0.00,VWS V14.01,2013-01-19 04:12:00,
2013-01-18 22:17:00,29.6,25.6,29.77,SW,230,1.0,3.0,85,0.00,,CLR,0.00,0.00,VWS V14.01,2013-01-19 04:17:00,
2013-01-18 22:22:00,29.5,25.8,29.77,SW,230,3.0,3.0,86,0.00,,CLR,0.00,0.00,VWS V14.01,2013-01-19 04:22:00,
2013-01-18 22:27:00,29.5,25.8,29.77,WSW,258,4.0,4.0,86,0.00,,CLR,0.00,0.00,VWS V14.01,2013-01-19 04:27:00,
2013-01-18 22:32:00,29.8,26.1,29.78,West,275,3.0,5.0,86,0.00,,CLR,0.00,0.00,VWS V14.01,2013-01-19 04:32:00,
2013-01-18 22:37:00,29.8,25.9,29.78,West,280,2.0,6.0,85,0.00,,CLR,0.00,0.00,VWS V14.01,2013-01-19 04:37:00,
2013-01-18 22:42:00,29.8,26.1,29.78,WNW,290,2.0,6.0,86,0.00,,CLR,0.00,0.00,VWS V14.01,2013-01-19 04:42:00,
2013-01-18 22:47:00,29.9,26.2,29.78,West,279,0.0,6.0,86,0.00,,CLR,0.00,0.00,VWS V14.01,2013-01-19 04:47:00,
2013-01-18 22:52:00,29.9,26.0,29.78,SW,221,4.0,6.0,85,0.00,,CLR,0.00,0.00,VWS V14.01,2013-01-19 04:52:00,
2013-01-18 22:57:00,29.6,25.6,29.78,SW,221,3.0,6.0,85,0.00,,CLR,0.00,0.00,VWS V14.01,2013-01-19 04:57:00,
2013-01-18 23:00:00,29.5,25.6,29.78,SW,221,3.0,3.0,85,0.00,,CLR,0.00,0.00,VWS V14.01,2013-01-19 05:00:00,
2013-01-18 23:01:00,29.3,25.4,29.78,SW,225,3.0,4.0,85,0.00,,CLR,0.00,0.00,VWS V14.01,2013-01-19 05:01:00,
2013-01-18 23:02:00,29.2,25.3,29.79,SW,225,2.0,4.0,85,0.00,,CLR,0.00,0.00,VWS V14.01,2013-01-19 05:02:00,
2013-01-18 23:07:00,28.9,25.2,29.79,SW,232,4.0,4.0,86,0.00,,CLR,0.00,0.00,VWS V14.01,2013-01-19 05:07:00,
2013-01-18 23:12:00,28.9,25.2,29.79,WSW,241,3.0,5.0,86,0.00,,CLR,0.00,0.00,VWS V14.01,2013-01-19 05:12:00,
2013-01-18 23:17:00,28.9,25.5,29.79,SW,230,3.0,5.0,87,0.00,,CLR,0.00,0.00,VWS V14.01,2013-01-19 05:17:00,
2013-01-18 23:22:00,29.1,25.7,29.79,SW,219,6.0,7.0,87,0.00,,CLR,0.00,0.00,VWS V14.01,2013-01-19 05:22:00,
2013-01-18 23:27:00,29.0,25.4,29.79,SW,230,4.0,7.0,86,0.00,,CLR,0.00,0.00,VWS V14.01,2013-01-19 05:27:00,
2013-01-18 23:32:00,29.3,25.9,29.79,WSW,240,5.0,7.0,87,0.00,,CLR,0.00,0.00,VWS V14.01,2013-01-19 05:32:00,
2013-01-18 23:37:00,29.6,26.2,29.79,WSW,251,3.0,8.0,87,0.00,,CLR,0.00,0.00,VWS V14.01,2013-01-19 05:37:00,
2013-01-18 23:42:00,29.8,26.4,29.79,WSW,252,7.0,8.0,87,0.00,,CLR,0.00,0.00,VWS V14.01,2013-01-19 05:42:00,
2013-01-18 23:47:00,30.1,26.4,29.79,West,269,1.0,8.0,86,0.00,,CLR,0.00,0.00,VWS V14.01,2013-01-19 05:47:00,
2013-01-18 23:52:00,30.2,26.5,29.79,WSW,252,2.0,8.0,86,0.00,,CLR,0.00,0.00,VWS V14.01,2013-01-19 05:52:00,
2013-01-18 23:57:00,30.2,26.5,29.78,WSW,242,1.0,8.0,86,0.00,,CLR,0.00,0.00,VWS V14.01,2013-01-19 05:57:00,